User: anonymous   Login
Location: Poughquag
(41.6090°N, 73.6820°W)
Time: 23:29:13
(UTC-04:00)
Language:

CUBESAT XI-V - Orbit

View from above orbital plane
View from above orbital plane
View from above satellite
View from above satellite

Ground track
Ground track

The orbit data is extracted from the following two-line orbital elements,

1 28895U 05043F   24194.32702051  .00002488  00000-0  44349-3 0  9993
2 28895  98.2051 330.1954 0014334 278.2476  81.7102 14.67864503998149
Epoch (UTC): 12 July 2024 07:50:54
Eccentricity: 0.0014334
inclination: 98.2051°
perigee height: 658 km
apogee height: 678 km
right ascension of ascending node: 330.1954°
argument of perigee: 278.2476°
revolutions per day: 14.67864503
mean anomaly at epoch: 81.7102°
orbit number at epoch: 99814

The dashed part of the orbit path shows where the satellite is in the earth's shadow,  

DLR